• In Hungary
  • List of Countries
  • For 7 days
  • Water Temperature
  • Satellite Maps
  • Weather Map
  • News
  • Weather Widgets
  • user-avatar
    Login

    Hourly Weather Gavrilovka 1-ya

    Today, 23 September, Sunday

    Time Temperature Precipitation Wind Pressure Humidity
    00:00 +17°C° 0 mm 3 mps 750 mmHg 74%
    01:00 +17°C° 0 mm 4 mps 750 mmHg 74%
    02:00 +15°C° 0 mm 4 mps 750 mmHg 74%
    03:00 +16°C° 0 mm 3 mps 750 mmHg 79%
    04:00 +14°C° 0 mm 4 mps 749 mmHg 78%
    05:00 +14°C° 0 mm 4 mps 749 mmHg 76%
    06:00 +14°C° 0 mm 5 mps 749 mmHg 75%
    07:00 +16°C° 0 mm 6 mps 748 mmHg 69%
    08:00 +17°C° 0 mm 7 mps 748 mmHg 63%
    09:00 +20°C° 0 mm 7 mps 747 mmHg 57%
    10:00 +21°C° 0 mm 8 mps 747 mmHg 54%
    11:00 +22°C° 0 mm 8 mps 746 mmHg 50%
    12:00 +23°C° 0 mm 8 mps 746 mmHg 46%
    13:00 +23°C° 0 mm 8 mps 745 mmHg 45%
    14:00 +24°C° 0 mm 8 mps 745 mmHg 45%
    15:00 +24°C° 0 mm 8 mps 745 mmHg 44%
    16:00 +22°C° 0.3 mm 7 mps 744 mmHg 51%
    17:00 +21°C° 0.3 mm 6 mps 744 mmHg 59%
    18:00 +19°C° 0.3 mm 5 mps 744 mmHg 66%
    19:00 +16°C° 1.6 mm 5 mps 744 mmHg 72%
    20:00 +14°C° 1.6 mm 5 mps 744 mmHg 79%
    21:00 +13°C° 1.6 mm 5 mps 744 mmHg 86%
    22:00 +11°C° 2.6 mm 6 mps 744 mmHg 86%
    23:00 +10°C° 2.6 mm 6 mps 744 mmHg 87%

    Tomorrow, 24 September, Monday

    Time Temperature Precipitation Wind Pressure Humidity
    00:00 +9°C° 2.6 mm 7 mps 744 mmHg 87%
    01:00 +9°C° 0.7 mm 6 mps 745 mmHg 87%
    02:00 +9°C° 0.7 mm 5 mps 745 mmHg 86%
    03:00 +9°C° 0.7 mm 5 mps 746 mmHg 85%
    04:00 +10°C° 0 mm 4 mps 746 mmHg 87%
    05:00 +8°C° 0 mm 4 mps 746 mmHg 89%
    06:00 +9°C° 0 mm 3 mps 747 mmHg 92%
    07:00 +10°C° 0 mm 3 mps 747 mmHg 87%
    08:00 +11°C° 0 mm 3 mps 747 mmHg 83%
    09:00 +12°C° 0 mm 3 mps 748 mmHg 79%
    10:00 +13°C° 0 mm 3 mps 748 mmHg 71%
    11:00 +14°C° 0 mm 3 mps 748 mmHg 64%
    12:00 +16°C° 0 mm 3 mps 748 mmHg 56%
    13:00 +17°C° 0 mm 3 mps 748 mmHg 54%
    14:00 +17°C° 0 mm 3 mps 748 mmHg 52%
    15:00 +17°C° 0 mm 3 mps 747 mmHg 49%
    16:00 +16°C° 0 mm 3 mps 747 mmHg 53%
    17:00 +14°C° 0 mm 3 mps 746 mmHg 57%
    18:00 +14°C° 0 mm 3 mps 745 mmHg 61%
    19:00 +14°C° 0 mm 4 mps 745 mmHg 59%
    20:00 +14°C° 0 mm 5 mps 745 mmHg 58%
    21:00 +14°C° 0 mm 6 mps 745 mmHg 56%
    22:00 +13°C° 0.4 mm 6 mps 744 mmHg 59%
    23:00 +12°C° 0.4 mm 7 mps 743 mmHg 62%

    Day after tomorrow, 25 September, Tuesday

    Time Temperature Precipitation Wind Pressure Humidity
    00:00 +12°C° 0.4 mm 7 mps 742 mmHg 65%
    01:00 +11°C° 0.4 mm 8 mps 742 mmHg 65%
    02:00 +11°C° 0.4 mm 8 mps 741 mmHg 66%
    03:00 +11°C° 0.4 mm 8 mps 740 mmHg 67%
    04:00 +11°C° 0.5 mm 8 mps 739 mmHg 72%
    05:00 +11°C° 0.5 mm 8 mps 739 mmHg 77%
    06:00 +11°C° 0.5 mm 8 mps 739 mmHg 81%
    07:00 +11°C° 0.9 mm 7 mps 739 mmHg 82%
    08:00 +10°C° 0.9 mm 7 mps 739 mmHg 83%
    09:00 +10°C° 0.9 mm 7 mps 739 mmHg 84%
    10:00 +10°C° 0.2 mm 7 mps 739 mmHg 80%
    11:00 +10°C° 0.2 mm 7 mps 740 mmHg 75%
    12:00 +10°C° 0.2 mm 7 mps 740 mmHg 70%
    13:00 +11°C° 0 mm 7 mps 741 mmHg 69%
    14:00 +11°C° 0 mm 7 mps 741 mmHg 68%
    15:00 +11°C° 0 mm 7 mps 742 mmHg 68%
    16:00 +10°C° 0 mm 7 mps 742 mmHg 69%
    17:00 +9°C° 0 mm 6 mps 743 mmHg 70%
    18:00 +9°C° 0 mm 6 mps 743 mmHg 71%
    19:00 +8°C° 0 mm 6 mps 744 mmHg 72%
    20:00 +7°C° 0 mm 6 mps 744 mmHg 74%
    21:00 +7°C° 0 mm 6 mps 745 mmHg 75%
    22:00 +6°C° 0 mm 5 mps 745 mmHg 76%
    23:00 +6°C° 0 mm 5 mps 745 mmHg 77%

    26 September, Wednesday

    Time Temperature Precipitation Wind Pressure Humidity
    00:00 +5°C° 0 mm 5 mps 746 mmHg 78%
    01:00 +5°C° 0 mm 5 mps 746 mmHg 80%
    02:00 +5°C° 0 mm 5 mps 747 mmHg 81%
    03:00 +3°C° 0 mm 5 mps 747 mmHg 82%
    04:00 +3°C° 0 mm 5 mps 748 mmHg 83%
    05:00 +3°C° 0 mm 5 mps 748 mmHg 84%
    06:00 +3°C° 0 mm 5 mps 748 mmHg 85%
    07:00 +5°C° 0 mm 5 mps 749 mmHg 81%
    08:00 +6°C° 0 mm 5 mps 749 mmHg 77%
    09:00 +7°C° 0 mm 6 mps 750 mmHg 73%
    10:00 +7°C° 0 mm 6 mps 750 mmHg 71%
    11:00 +7°C° 0 mm 5 mps 751 mmHg 69%
    12:00 +7°C° 0 mm 5 mps 751 mmHg 67%
    13:00 +8°C° 0 mm 5 mps 752 mmHg 67%
    14:00 +8°C° 0 mm 5 mps 752 mmHg 67%
    15:00 +8°C° 0 mm 5 mps 752 mmHg 66%
    16:00 +7°C° 0 mm 4 mps 752 mmHg 68%
    17:00 +7°C° 0 mm 4 mps 753 mmHg 70%
    18:00 +7°C° 0 mm 3 mps 753 mmHg 72%
    19:00 +7°C° 0 mm 3 mps 753 mmHg 73%
    20:00 +7°C° 0 mm 3 mps 754 mmHg 75%
    21:00 +6°C° 0 mm 2 mps 754 mmHg 76%
    22:00 +6°C° 0 mm 2 mps 754 mmHg 77%
    23:00 +4°C° 0 mm 3 mps 754 mmHg 79%

    27 September, Thursday

    Time Temperature Precipitation Wind Pressure Humidity
    00:00 +4°C° 0 mm 3 mps 754 mmHg 80%
    01:00 +3°C° 0 mm 3 mps 754 mmHg 80%
    02:00 +3°C° 0 mm 3 mps 754 mmHg 80%
    03:00 +3°C° 0 mm 3 mps 754 mmHg 80%
    04:00 +3°C° 0 mm 3 mps 753 mmHg 80%
    05:00 +2°C° 0 mm 3 mps 753 mmHg 80%
    06:00 +2°C° 0 mm 3 mps 753 mmHg 79%
    07:00 +4°C° 0 mm 4 mps 753 mmHg 73%
    08:00 +5°C° 0 mm 5 mps 752 mmHg 66%
    09:00 +7°C° 0 mm 6 mps 752 mmHg 60%
    10:00 +6°C° 0 mm 7 mps 751 mmHg 57%
    11:00 +7°C° 0 mm 8 mps 751 mmHg 54%
    12:00 +9°C° 0 mm 8 mps 750 mmHg 51%
    13:00 +9°C° 0.1 mm 8 mps 749 mmHg 53%
    14:00 +8°C° 0.1 mm 9 mps 748 mmHg 54%
    15:00 +8°C° 0.1 mm 9 mps 747 mmHg 56%
    16:00 +7°C° 0.5 mm 9 mps 747 mmHg 61%
    17:00 +7°C° 0.5 mm 9 mps 746 mmHg 67%
    18:00 +6°C° 0.5 mm 9 mps 745 mmHg 72%
    19:00 +6°C° 0.2 mm 9 mps 745 mmHg 74%
    20:00 +6°C° 0.2 mm 9 mps 744 mmHg 75%
    21:00 +6°C° 0.2 mm 9 mps 744 mmHg 77%
    22:00 +6°C° 0.2 mm 9 mps 743 mmHg 79%
    23:00 +6°C° 0.2 mm 9 mps 743 mmHg 81%

    28 September, Friday

    Time Temperature Precipitation Wind Pressure Humidity
    00:00 +6°C° 0.2 mm 9 mps 742 mmHg 83%
    01:00 +7°C° 0.1 mm 9 mps 743 mmHg 83%
    02:00 +7°C° 0.1 mm 9 mps 743 mmHg 82%
    03:00 +8°C° 0.1 mm 9 mps 743 mmHg 82%
    04:00 +7°C° 0 mm 8 mps 743 mmHg 81%
    05:00 +5°C° 0 mm 8 mps 744 mmHg 80%
    06:00 +4°C° 0 mm 7 mps 744 mmHg 78%
    07:00 +5°C° 0 mm 7 mps 745 mmHg 76%
    08:00 +6°C° 0 mm 8 mps 745 mmHg 73%
    09:00 +6°C° 0 mm 8 mps 746 mmHg 70%
    10:00 +7°C° 0 mm 8 mps 746 mmHg 65%
    11:00 +9°C° 0 mm 7 mps 747 mmHg 61%
    12:00 +10°C° 0 mm 7 mps 747 mmHg 56%
    13:00 +11°C° 0 mm 7 mps 747 mmHg 54%
    14:00 +11°C° 0 mm 6 mps 747 mmHg 52%
    15:00 +11°C° 0 mm 6 mps 747 mmHg 50%
    16:00 +10°C° 0 mm 5 mps 747 mmHg 54%
    17:00 +10°C° 0 mm 3 mps 748 mmHg 59%
    18:00 +10°C° 0 mm 2 mps 748 mmHg 63%
    19:00 +9°C° 0.3 mm 2 mps 748 mmHg 66%
    20:00 +9°C° 0.3 mm 2 mps 747 mmHg 68%
    21:00 +9°C° 0.3 mm 2 mps 747 mmHg 71%
    22:00 +9°C° 0.4 mm 2 mps 747 mmHg 73%
    23:00 +9°C° 0.4 mm 3 mps 747 mmHg 74%
    Show more